THOR ABLESTAR DEB, 543

Orbit data source: Space-Track

THOR ABLESTAR DEB, 543 is space debris in LEO originally from a launch on Thu, 29 Jun 1961 UTC launched from the Air Force Eastern Test Range (AFETR). Debris objects in space refer to the collection of defunct objects orbiting the Earth. Examples of debris include non-operational satellites, rocket bodies, and fragments generated from explosions, collisions, or faulty payload assembly.

Loading next visibility...
Identifier
543, 1961-015GC
Orbit
LEO
Country
Flag of USUS
Related business
Manufacturer
Unknown
Mission
Spacecraft
Bus & Motor
Unknown
Mass
Unknown
Launch date (UTC)
1961-06-29 (64 years ago)
Launch vehicle
Unknown
Launch site
Air Force Eastern Test Range (AFETR)
Object type
Payload
Rocket body
Debris
Shape & HBR
Unknown shape, 0.1 m
Radar Cross Section
Small (<0.1 m²)

Expand to show TLE details & history
Last TLE update: 21 hours ago

TLE from 21 hours ago
0 THOR ABLESTAR DEB
1 00543U 61015GC  25341.57004801  .00000240  00000-0  35220-3 0  9996
2 00543  67.0330  31.2064 0070576 334.4383 145.9212 13.69149000210462
Epoch: 2025-12-07T13:40Z
TLE epoch observation values (Epoch: 2025-12-07T13:40:52.148Z)
Latitude
52.37376°
Longitude
-103.75115°
Altitude
1,053.569 km
Speed
7.309 km/s
True Right ascension
11h 52m 11s
True Declination
52° 12' 50"
Sunlit
Object was in daylight at epoch
Visualization orbit readout
Latitude
Unknown
Longitude
Unknown
Altitude
Unknown
Speed
Unknown
Apparent Right ascension
Unknown
Apparent Declination
Unknown
Sunlit
N/A
Visualization observer readout
Local Sidereal Time
08:29:10
Azimuth
Unknown
Elevation
Unknown
Doppler factor
Unknown
Orbital elements
Apogee altitude
1,053.091 km
Perigee altitude
948.933 km
Semi-major axis
7,379.149 km
Eccentricity
0.00706
Inclination
67.033°
RAAN
31.2064°
Arg. of periapsis
334.4383°
True anomaly
146.37107°
Mean anomaly
145.9212°
Eccentric anomaly
146.14646°
Mean motion
3.424 °/min
Orbital period
105.14 mins
BSTAR
0.0003522
Loading maneuver chart data...
Computing Atmospheric mass density...
Loading historical data...
Loading historical data...
Loading historical data...
Loading historical data...
Loading historical data...
Loading historical data...
Loading historical data...

Documentation

Showing up to 5 results
|